This demonstration page uses our WeatherBlox Daily Observations layout. Learn more.

39.92423, -83.80882

Hourly Observations for August 13, 2017

Temp ( °F °C ) Dew Point ( °F °C ) Humidity (%) Winds ( mph kmh ) Pressure ( in mb ) Visibility ( mi km ) Precip ( " mm )
12:56 am 00:56 Clear 60 15.6 57 13.9 90 90 WNW 3 6 30.03 1017 10 16.0934 0 0
1:56 am 01:56 Mostly Clear 59 15 57 13.9 93 93 WNW 5 7 30.04 1017 10 16.0934 0 0
2:56 am 02:56 Clear 59 15 57 13.9 93 93 WNW 3 6 30.04 1017 10 16.0934 0 0
3:56 am 03:56 Clear 59 15 56 13.3 90 90 NNW 3 6 30.04 1017 10 16.0934 0 0
4:56 am 04:56 Clear 58 14.4 57 13.9 97 97 Calm 30.04 1017 10 16.0934 0 0
5:56 am 05:56 Clear 57 13.9 56 13.3 96 96 Calm 30.05 1018 10 16.0934 0 0
6:56 am 06:56 Sunny 57 13.9 57 13.9 100 100 Calm 30.06 1018 9 14.48406 0 0
7:12 am 07:12 Sunny with Mist and Fog 55 13 55 13 100 100 Calm 30.06 1018 2.5 4.02335 0 0
7:19 am 07:19 Sunny with Mist and Fog 55 13 55 13 100 100 Calm 30.09 1019 1.5 2.41401 0 0
7:28 am 07:28 Partly Cloudy with Mist and Fog 57 14 55 13 94 94 Calm 30.06 1018 4 6.43736 0 0
7:56 am 07:56 Mostly Sunny 60 15.6 58 14.4 93 93 Calm 30.07 1018 10 16.0934 0 0
8:56 am 08:56 Sunny 65 18.3 61 16.1 87 87 ENE 7 11 30.07 1018 10 16.0934 0 0
9:09 am 09:09 Mostly Sunny 66 19 63 17 88 88 ENE 6 9 30.06 1018 9 14.48406 0 0
9:56 am 09:56 Sunny 70 21.1 62 16.7 76 76 E 6 9 30.08 1019 10 16.0934 0 0
10:56 am 10:56 Sunny 72 22.2 62 16.7 71 71 ESE 6 9 30.09 1019 10 16.0934 0 0
11:56 am 11:56 Sunny 74 23.3 60 15.6 62 62 VRB 5 7 30.09 1019 10 16.0934 0 0
12:56 pm 12:56 Sunny 76 24.4 58 14.4 54 54 ENE 6 9 30.08 1019 10 16.0934 0 0
1:56 pm 13:56 Partly Cloudy 77 25 60 15.6 56 56 VRB 3 6 30.06 1018 10 16.0934 0 0
2:56 pm 14:56 Mostly Sunny 78 25.6 59 15 52 52 E 6 9 30.06 1018 10 16.0934 0 0
3:56 pm 15:56 Sunny 79 26.1 60 15.6 52 52 SSE 6 9 30.04 1017 10 16.0934 0 0
4:56 pm 16:56 Sunny 79 26.1 57 13.9 47 47 VRB 6 9 30.02 1017 10 16.0934 0 0
5:56 pm 17:56 Mostly Sunny 77 25 59 15 54 54 ESE 5 7 30.02 1017 10 16.0934 0 0
6:56 pm 18:56 Sunny 77 25 60 15.6 56 56 ESE 6 9 30.01 1016 10 16.0934 0 0
7:56 pm 19:56 Sunny 72 22.2 62 16.7 71 71 E 3 6 30.01 1016 10 16.0934 0 0
8:56 pm 20:56 Hazy 68 20 61 16.1 78 78 E 3 6 30.01 1016 5 8.0467 0 0
9:56 pm 21:56 Clear 66 18.9 61 16.1 84 84 ESE 3 6 30.02 1017 10 16.0934 0 0
10:56 pm 22:56 Clear 63 17.2 60 15.6 90 90 ESE 3 6 30.01 1016 10 16.0934 0 0
11:56 pm 23:56 Clear 61 16.1 59 15 93 93 E 5 7 30 1016 10 16.0934 0 0

Powered by AerisWeather